Date String (YYYY-MM-DD hh:mm:ss) UTC,Instrument flags,absolute air pressure of the measurement (hPa),sample flow rate (lpm),inlet stack bypass flow (lpm),air temperature of the measurement (°C),ambient temperature measured by the external sensor (°C),aerosol sample conditioner tube jacket temperature (°C),OPC LED temperature (°C),internal box temperature (°C),relative humidity of the measurement (%),span deviation,mass concentration of particles derived from Lorenz-Mie calculation of OPC scattering (μg/m³),mass concentration of particles derived from Lorenz-Mie calculation of OPC scattering (μg/m³),mass concentration of particles derived from Lorenz-Mie calculation of OPC scattering (μg/m³)
DateTimeUTC,F1_M11,P_M11,Q1_M11,Q2_M11,T1_M11,T2_M11,T3_M11,T4_M11,T5_M11,U1_M11,ZSPAN_M11,X0_M11,X2_M11,X1_M11
2024-01-24 15:00:00,SystemResetWarning,0826.8,5.01,000.00,021.1,020.1,000.0,029.4,022.4,17.8,0002.3,0011.32,0007.12,0006.78
2024-01-24 15:01:00,SystemResetWarning,0826.8,4.99,000.00,021.1,020.1,000.0,029.4,022.5,17.8,0002.5,0011.31,0007.11,0006.81
2024-01-24 15:02:00,SystemResetWarning,0826.8,4.99,000.00,021.1,020.2,000.0,029.4,022.5,17.7,0002.3,0011.58,0007.16,0006.85
2024-01-24 15:03:00,SystemResetWarning,0826.8,5.02,000.00,021.1,020.2,000.0,029.4,022.5,17.6,0002.2,0011.85,0007.21,0006.91
2024-01-24 15:04:00,SystemResetWarning,0826.8,5.00,000.00,021.1,020.2,000.0,029.4,022.5,17.6,0002.1,0010.99,0007.20,0006.91
2024-01-24 15:05:00,SystemResetWarning,0826.8,4.99,000.00,021.1,020.2,000.0,029.4,022.5,17.6,0002.1,0011.13,0007.20,0006.89
2024-01-24 15:06:00,SystemResetWarning,0826.8,4.99,000.00,021.1,020.2,000.0,029.4,022.5,17.6,0002.2,0011.32,0007.23,0006.90
2024-01-24 15:07:00,SystemResetWarning,0826.8,5.00,000.00,021.1,020.2,000.0,029.4,022.5,17.6,0002.7,0011.32,0007.26,0006.94
2024-01-24 15:08:00,SystemResetWarning,0826.9,5.00,000.00,021.1,020.2,000.0,029.4,022.5,17.7,0002.5,0011.48,0007.35,0006.99
2024-01-24 15:09:00,SystemResetWarning,0826.9,5.00,000.00,021.1,020.2,000.0,029.4,022.5,17.8,0002.4,0011.63,0007.42,0007.03
2024-01-24 15:10:00,SystemResetWarning,0826.9,5.00,000.00,021.1,020.3,000.0,029.4,022.5,17.9,0001.9,0011.59,0007.46,0007.05
2024-01-24 15:11:00,SystemResetWarning,0826.9,5.00,000.00,021.1,020.3,000.0,029.4,022.5,17.9,0001.3,0011.37,0007.51,0007.07
2024-01-24 15:12:00,SystemResetWarning,0826.9,5.00,000.00,021.1,020.3,000.0,029.4,022.5,17.9,0001.4,0011.56,0007.54,0007.07
2024-01-24 15:13:00,SystemResetWarning,0826.9,5.00,000.00,021.1,020.3,000.0,029.4,022.5,17.9,0001.4,0011.45,0007.55,0007.07
2024-01-24 15:14:00,SystemResetWarning,0826.9,5.00,000.00,021.1,020.3,000.0,029.4,022.5,18.0,0001.7,0011.09,0007.49,0007.00
2024-01-24 15:15:00,SystemResetWarning,0827.0,4.99,000.00,021.1,020.3,000.0,029.4,022.5,18.0,0001.7,0011.13,0007.53,0007.02
2024-01-24 15:16:00,SystemResetWarning,0827.0,5.00,000.00,021.1,020.3,000.0,029.4,022.5,18.2,0001.8,0011.10,0007.56,0007.05
2024-01-24 15:17:00,SystemResetWarning,0827.0,5.00,000.00,021.1,020.3,000.0,029.4,022.5,18.2,0001.8,0011.11,0007.57,0007.06
2024-01-24 15:18:00,SystemResetWarning,0827.0,5.00,000.00,021.1,020.3,000.0,029.4,022.6,18.1,0001.6,0011.03,0007.53,0007.03
2024-01-24 15:19:00,SystemResetWarning,0827.0,5.00,000.00,021.1,020.3,000.0,029.4,022.5,18.1,0001.6,0010.81,0007.42,0006.95
2024-01-24 15:20:00,SystemResetWarning,0827.1,5.00,000.00,021.1,020.3,000.0,029.4,022.5,18.0,0001.2,0010.61,0007.30,0006.86
2024-01-24 15:21:00,SystemResetWarning,0827.1,5.00,000.00,021.1,020.3,000.0,029.4,022.5,18.0,0000.9,0010.50,0007.23,0006.81
2024-01-24 15:22:00,SystemResetWarning,0827.1,5.00,000.00,021.1,020.2,000.0,029.4,022.5,18.0,0001.4,0010.36,0007.18,0006.76
2024-01-24 15:23:00,SystemResetWarning,0827.1,4.99,000.00,021.1,020.2,000.0,029.4,022.5,18.1,0001.3,0010.23,0007.13,0006.73
2024-01-24 15:24:00,SystemResetWarning,0827.1,5.00,000.00,021.1,020.2,000.0,029.4,022.5,18.0,0001.0,0010.14,0007.08,0006.70
2024-01-24 15:25:00,SystemResetWarning,0827.1,5.00,000.00,021.1,020.2,000.0,029.4,022.5,17.8,0000.3,0010.12,0007.06,0006.68
2024-01-24 15:26:00,SystemResetWarning,0827.1,5.01,000.00,021.1,020.2,000.0,029.4,022.5,17.8,0000.2,0010.03,0006.96,0006.60
2024-01-24 15:27:00,SystemResetWarning,0827.1,5.01,000.00,021.1,020.2,000.0,029.4,022.5,17.9,0000.2,0009.86,0006.86,0006.52
2024-01-24 15:28:00,SystemResetWarning,0827.1,5.00,000.00,021.1,020.2,000.0,029.4,022.5,17.9,0000.2,0009.53,0006.79,0006.44
2024-01-24 15:29:00,SystemResetWarning,0827.1,5.00,000.00,021.1,020.2,000.0,029.4,022.5,17.9,0000.5,0009.44,0006.73,0006.38
2024-01-24 15:30:00,SystemResetWarning,0827.1,5.00,000.00,021.1,020.2,000.0,029.4,022.5,17.9,0000.9,0009.52,0006.71,0006.35
2024-01-24 15:31:00,SystemResetWarning,0827.2,5.00,000.00,021.1,020.2,000.0,029.4,022.5,18.0,0001.4,0009.45,0006.69,0006.35
2024-01-24 15:32:00,SystemResetWarning,0827.1,5.00,000.00,021.1,020.2,000.0,029.4,022.5,18.0,0002.1,0009.71,0006.71,0006.37
2024-01-24 15:33:00,SystemResetWarning,0827.1,5.00,000.00,021.1,020.2,000.0,029.4,022.5,18.1,0002.7,0009.66,0006.71,0006.37
2024-01-24 15:34:00,SystemResetWarning,0827.1,5.00,000.00,021.1,020.2,000.0,029.4,022.5,18.1,0002.8,0009.62,0006.71,0006.38
2024-01-24 15:35:00,SystemResetWarning,0827.1,5.00,000.00,021.1,020.2,000.0,029.4,022.5,18.0,0002.8,0009.63,0006.71,0006.39
2024-01-24 15:36:00,SystemResetWarning,0827.1,5.00,000.00,021.1,020.2,000.0,029.4,022.5,17.9,0003.2,0009.69,0006.73,0006.40
2024-01-24 15:37:00,SystemResetWarning,0827.2,5.00,000.00,021.1,020.2,000.0,029.4,022.5,17.9,0003.3,0009.91,0006.77,0006.45
2024-01-24 15:38:00,SystemResetWarning,0827.1,5.00,000.00,021.1,020.2,000.0,029.4,022.5,17.9,0002.9,0010.20,0006.83,0006.50
2024-01-24 15:39:00,SystemResetWarning,0827.1,5.00,000.00,021.1,020.2,000.0,029.4,022.5,17.9,0002.5,0010.38,0006.90,0006.57
2024-01-24 15:40:00,SystemResetWarning,0827.1,5.00,000.00,021.1,020.2,000.0,029.4,022.5,17.8,0001.5,0010.45,0006.95,0006.63
2024-01-24 15:41:00,SystemResetWarning,0827.1,5.00,000.00,021.1,020.2,000.0,029.4,022.5,17.8,0000.0,0010.60,0007.00,0006.68
2024-01-24 15:42:00,SystemResetWarning,0827.2,5.00,000.00,021.1,020.2,000.0,029.4,022.5,17.8,0000.0,0010.86,0007.07,0006.71
2024-01-24 15:43:00,SystemResetWarning,0827.2,5.00,000.00,021.1,020.2,000.0,029.4,022.5,17.8,0000.0,0010.73,0007.10,0006.73
2024-01-24 15:44:00,SystemResetWarning,0827.2,5.00,000.00,021.1,020.2,000.0,029.4,022.5,17.7,0000.0,0011.13,0007.16,0006.77
2024-01-24 15:45:00,SystemResetWarning,0827.2,5.00,000.00,021.1,020.2,000.0,029.4,022.5,17.6,0000.2,0011.40,0007.19,0006.79
2024-01-24 15:46:00,SystemResetWarning,0827.2,5.00,000.00,021.1,020.2,000.0,029.4,022.5,17.6,0001.0,0011.50,0007.25,0006.81
2024-01-24 15:47:00,SystemResetWarning,0827.2,5.00,000.00,021.1,020.2,000.0,029.4,022.5,17.6,0000.8,0011.45,0007.24,0006.82
2024-01-24 15:48:00,SystemResetWarning,0827.2,5.00,000.00,021.1,020.2,000.0,029.4,022.5,17.6,0000.6,0011.21,0007.19,0006.79
2024-01-24 15:49:00,SystemResetWarning,0827.2,5.00,000.00,021.1,020.2,000.0,029.4,022.5,17.6,0000.1,0011.50,0007.19,0006.78
2024-01-24 15:50:00,SystemResetWarning,0827.2,5.00,000.00,021.1,020.2,000.0,029.4,022.5,17.6,0000.9,0011.99,0007.19,0006.76
2024-01-24 15:51:00,SystemResetWarning,0827.2,5.00,000.00,021.1,020.2,000.0,029.4,022.5,17.6,0001.4,0012.39,0007.21,0006.75
2024-01-24 15:52:00,SystemResetWarning,0827.1,5.00,000.00,021.1,020.2,000.0,029.4,022.5,17.6,0001.5,0012.26,0007.20,0006.74
2024-01-24 15:53:00,SystemResetWarning,0827.2,5.00,000.00,021.1,020.2,000.0,029.4,022.5,17.6,0001.4,0012.08,0007.19,0006.74
2024-01-24 15:54:00,SystemResetWarning,0827.1,5.00,000.00,021.1,020.2,000.0,029.4,022.5,17.6,0001.4,0012.26,0007.17,0006.73
2024-01-24 15:55:00,SystemResetWarning,0827.2,5.00,000.00,021.1,020.3,000.0,029.4,022.5,17.5,0001.1,0012.45,0007.13,0006.71
2024-01-24 15:56:00,SystemResetWarning,0827.2,5.00,000.00,021.1,020.3,000.0,029.4,022.6,17.5,0001.5,0011.94,0007.11,0006.72
2024-01-24 15:57:00,SystemResetWarning,0827.1,5.00,000.00,021.1,020.3,000.0,029.4,022.6,17.5,0002.0,0012.32,0007.12,0006.73
2024-01-24 15:58:00,SystemResetWarning,0827.1,5.00,000.00,021.1,020.3,000.0,029.4,022.6,17.5,0002.1,0012.61,0007.17,0006.76
2024-01-24 15:59:00,SystemResetWarning,0827.1,4.99,000.00,021.1,020.3,000.0,029.4,022.6,17.4,0002.2,0012.61,0007.23,0006.80
